www.pogodaiklimat.ru

Погода и климат >> Архив погоды >> Австралия >> Западная Австралия >> Норсман


ПОГОДА в Норсмане

  • Прогноз погоды в Норсмане
  • Монитор погоды в Норсмане

АРХИВ ПОГОДЫ в Норсмане

Время (UTC), дата Ветер
(напр.,м/с)
 
Видим.   Явления Облачность Т
(С)
Тd
(С)
f
(%)
Тe
(С)
Тes
(С)
Комфортность P
(гПа)
Po
(гПа)
Тmin
(С)
Tmax
(С)
R
(мм)
R24
(мм)
S
(см)
01 14.05 штиль 0 н/о н/о +10.6 +10.6 100 +10 +10 1027.3 995.9 +4.3
03 14.05 С 4 н/о н/о +17.7 +9.1 57 +17 +17 1026.5 995.1
04 14.05 С 5 н/о н/о +20.3 +7.3 43 +21 +21 комфорт 1025.4 994.1
06 14.05 С 4 н/о н/о +23.9 +4.8 29 +24 +24 комфорт 1024.0 992.7
07 14.05 С 5 н/о н/о +24.4 +1.9 23 +23 +23 комфорт 1023.9 992.6
09 14.05 С 4 н/о н/о +21.5 +1.2 26 +21 +21 комфорт 1023.9 992.6
10 14.05 В 2 н/о н/о +15.0 +1.2 39 +15 +15 1024.3 993.0
12 14.05 штиль 0 н/о н/о +10.2 +0.5 51 +10 +10 1025.0 993.7
13 14.05 штиль 0 н/о н/о +9.3 +0.5 54 +9 +9 1025.2 993.9 +24.8
15 14.05 штиль 0 н/о н/о +7.4 +0.4 61 +7 +7 1025.1 993.8
16 14.05 штиль 0 н/о н/о +7.0 +0.5 63 +6 +6 1025.0 993.7
18 14.05 СВ 2 н/о н/о +7.0 0.0 61 +5 +5 1024.5 993.2
19 14.05 СВ 2 н/о н/о +7.2 +0.2 61 +5 +5 1024.5 993.2
21 14.05 СВ 3 н/о н/о +6.5 +1.4 70 +4 +4 1024.5 993.2
22 14.05 СВ 2 н/о н/о +6.5 +1.6 71 +4 +4 1024.8 993.5
00 15.05 С 2 н/о н/о +8.5 +3.1 69 +7 +7 1025.3 994.0
01 15.05 С 4 н/о н/о +12.5 +3.5 54 +11 +11 1025.4 994.1 +5.5
03 15.05 С 5 н/о н/о +17.2 +1.2 34 +17 +17 1024.3 993.0
04 15.05 С 6 н/о н/о +20.1 +1.0 28 +20 +20 1023.1 991.8
06 15.05 С 6 н/о н/о +25.3 -0.7 18 +24 +24 комфорт 1020.9 989.7
07 15.05 С 5 н/о н/о +24.5 -1.3 18 +23 +23 комфорт 1020.6 989.4
09 15.05 СВ 4 н/о н/о +21.9 -0.8 22 +21 +21 комфорт 1020.2 989.0
10 15.05 В 2 н/о н/о +17.5 -1.7 27 +18 +18 1020.5 989.3
12 15.05 штиль 0 н/о н/о +10.4 -1.9 42 +10 +10 1021.1 989.9
13 15.05 штиль 0 н/о н/о +9.4 -2.5 43 +9 +9 1020.8 989.6 +25.5
15 15.05 СВ 3 н/о н/о +8.4 -2.8 45 +6 +6 1019.8 988.6
16 15.05 СВ 2 н/о н/о +7.4 -2.9 48 +6 +6 1019.2 988.0
18 15.05 СВ 3 н/о н/о +9.4 -3.2 41 +8 +8 1018.2 987.1
19 15.05 СВ 4 н/о н/о +8.6 -2.9 44 +6 +6 1018.0 986.9
21 15.05 СВ 4 н/о н/о +7.5 -2.8 48 +5 +5 1017.6 986.5
22 15.05 СВ 3 н/о н/о +7.3 -3.0 48 +5 +5 1017.4 986.3
00 16.05 СВ 3 н/о н/о +11.9 -2.3 37 +11 +11 1017.6 986.5
01 16.05 С 5 н/о н/о +15.4 -2.5 29 +14 +14 1017.3 986.2 +6.9
03 16.05 С 4 н/о н/о +21.0 -1.5 22 +21 +21 комфорт 1016.1 985.0
04 16.05 СЗ 7 н/о н/о +24.9 -3.5 15 +23 +23 комфорт 1015.1 984.1
06 16.05 З 7 н/о н/о +24.8 -1.9 17 +23 +23 комфорт 1014.4 983.4
07 16.05 ЮЗ 10 н/о н/о +23.0 +0.2 22 +22 +22 комфорт 1015.2 984.2
09 16.05 ЮЗ 8 н/о н/о +16.0 +11.2 73 +14 +14 1017.4 986.3
10 16.05 ЮЗ 6 н/о н/о +14.5 +11.5 82 +13 +13 1017.5 986.4
12 16.05 Ю 6 н/о н/о +10.6 +10.4 99 +7 +7 1020.1 988.9
13 16.05 Ю 7 н/о туман местами н/о +10.1 +9.6 97 +6 +6 1020.4 989.2 +26.6
15 16.05 Ю 6 н/о н/о +9.6 +9.5 99 +6 +6 1019.1 987.9
16 16.05 Ю 7 н/о {туман} н/о +9.5 +8.9 96 +5 +5 1018.8 987.7
18 16.05 ЮЗ 4 н/о н/о +9.6 +9.5 99 +7 +7 1020.4 989.2
19 16.05 ЮЗ 3 н/о туман местами н/о +9.2 +9.2 100 +7 +7 1020.3 989.1
21 16.05 Ю 4 н/о н/о +9.0 +9.0 100 +6 +6 1020.5 989.3
22 16.05 Ю 3 н/о в посл. час дождь {туман} н/о +8.8 +8.8 100 +6 +6 1021.1 989.9
00 17.05 ЮЗ 4 н/о н/о +8.7 +8.6 99 +6 +6 1022.0 990.8
01 17.05 Ю 3 н/о {туман} н/о +9.6 +8.7 94 +7 +7 1022.1 990.9 +8.4
03 17.05 Ю 6 н/о н/о +11.6 +5.9 68 +9 +9 1021.2 990.0
04 17.05 Ю 5 н/о н/о +10.0 +4.8 70 +7 +7 1020.5 989.3
06 17.05 Ю 7 н/о н/о +11.7 +4.0 59 +9 +9 1019.8 988.6
07 17.05 Ю 10 н/о н/о +9.3 +6.2 81 +5 +5 1020.3 989.1
09 17.05 ЮЗ 6 н/о н/о +9.5 +3.5 66 +6 +6 1020.8 989.6
10 17.05 Ю 5 н/о н/о +7.4 +4.0 79 +3 +3 1021.8 990.6
12 17.05 ЮЗ 2 н/о н/о +4.6 +4.5 99 +2 +2 1022.6 991.3
13 17.05 ЮЗ 2 н/о н/о +4.5 +4.4 99 +1 +1 1022.5 991.2 +13.5
15 17.05 ЮЗ 3 н/о н/о +4.2 +4.1 99 +1 +1 1021.6 990.4
16 17.05 ЮЗ 3 н/о н/о +3.8 +3.7 99 -0 -0 1021.0 989.8
18 17.05 ЮЗ 3 н/о н/о +4.2 +4.1 99 0 0 1020.1 988.9
19 17.05 ЮЗ 3 н/о н/о +3.7 +3.6 99 -1 -1 1019.5 988.3
21 17.05 З 3 н/о н/о +2.8 +2.7 99 -2 -2 1019.1 987.9
22 17.05 ЮЗ 4 н/о н/о +3.1 +3.0 99 -2 -2 1019.1 987.9
00 18.05 З 6 н/о н/о +5.1 +3.9 92 0 0 1020.2 989.0
01 18.05 З 6 н/о н/о +7.6 +4.6 81 +3 +3 1019.9 988.7 +2.6
03 18.05 З 9 н/о н/о +11.3 +5.6 68 +8 +8 1019.6 988.4
04 18.05 З 10 н/о н/о +12.3 +4.3 58 +9 +9 1018.7 987.6
06 18.05 З 10 н/о н/о +13.0 +4.7 57 +10 +10 1017.6 986.5
07 18.05 З 9 н/о н/о +13.5 +3.8 52 +11 +11 1017.7 986.6
09 18.05 З 8 н/о н/о +12.3 +4.0 57 +9 +9 1018.6 987.5
10 18.05 ЮЗ 7 н/о н/о +11.8 +4.5 61 +9 +9 1019.3 988.1
12 18.05 ЮЗ 6 н/о н/о +11.2 +5.3 67 +8 +8 1020.8 989.6
13 18.05 ЮЗ 6 н/о н/о +10.4 +5.2 70 +7 +7 1020.8 989.6 +14.0
15 18.05 ЮЗ 5 н/о н/о +8.0 +5.5 84 +4 +4 1020.7 989.5
16 18.05 ЮЗ 5 н/о н/о +6.9 +5.2 89 +3 +3 1020.3 989.1
18 18.05 З 4 н/о н/о +6.1 +5.2 94 +2 +2 1020.5 989.3
19 18.05 штиль 0 н/о н/о +5.5 +4.9 96 +4 +4 1020.1 988.9
21 18.05 ЮЗ 3 н/о н/о +4.7 +4.3 97 +1 +1 1020.3 989.1
22 18.05 ЮЗ 1 н/о н/о +3.1 +3.0 99 +3 +3 1020.6 989.4
00 19.05 СВ 1 н/о н/о +6.0 +5.0 93 +5 +5 1021.9 990.7
01 19.05 штиль 0 н/о н/о +8.2 +4.6 78 +7 +7 1021.8 990.6 +2.1
03 19.05 З 4 н/о н/о +12.5 +5.0 60 +11 +11 1021.0 989.8
04 19.05 СЗ 1 н/о в посл. час дождь {туман} н/о +14.1 +4.7 53 +15 +15 1020.1 988.9
06 19.05 СВ 4 н/о н/о +15.4 +4.8 49 +15 +15 1018.6 987.5
07 19.05 С 3 н/о {туман} н/о +16.6 +3.3 41 +16 +16 1018.3 987.2
09 19.05 СВ 3 н/о н/о +13.6 +5.3 57 +13 +13 1017.9 986.8
10 19.05 В 2 н/о н/о +10.7 +4.4 65 +10 +10 1018.3 987.2
12 19.05 СВ 2 н/о н/о +7.7 +4.3 79 +6 +6 1018.2 987.1
13 19.05 СВ 3 н/о н/о +6.7 +3.5 80 +4 +4 1018.0 986.9 +17.2
15 19.05 СВ 3 н/о н/о +7.4 +3.8 78 +5 +5 1017.4 986.3
16 19.05 СВ 3 н/о н/о +7.4 +4.0 79 +5 +5 1017.1 986.0
18 19.05 С 3 н/о н/о +5.1 +3.4 89 +2 +2 1016.6 985.5
19 19.05 СВ 4 н/о н/о +6.2 +3.7 84 +2 +2 1016.2 985.1
21 19.05 С 4 н/о н/о +4.8 +2.5 85 +1 +1 1015.2 984.2
22 19.05 С 4 н/о н/о +5.5 +2.5 81 +2 +2 1015.3 984.3
00 20.05 С 4 н/о н/о +7.5 +3.4 75 +4 +4 1016.5 985.4
01 20.05 С 6 н/о н/о +11.2 +4.2 62 +9 +9 1016.5 985.4 +4.5
03 20.05 С 4 н/о н/о +14.3 +5.1 54 +13 +13 1015.9 984.8
04 20.05 С 3 н/о н/о +15.7 +5.9 52 +15 +15 1015.4 984.4
06 20.05 С 2 н/о н/о +21.4 +8.0 42 +22 +22 комфорт 1014.6 983.6
07 20.05 З 6 н/о н/о +22.2 +11.0 49 +24 +24 комфорт 1015.1 984.1
09 20.05 З 3 н/о н/о +19.3 +11.6 61 +21 +21 комфорт 1016.3 985.2
10 20.05 ЮЗ 4 н/о н/о +18.8 +12.5 67 +20 +20 1017.3 986.2
12 20.05 З 2 н/о н/о +15.8 +10.6 71 +16 +16 1018.9 987.8
13 20.05 штиль 0 н/о н/о +11.7 +8.9 83 +11 +11 1019.3 988.1 +22.6
15 20.05 Ю 3 н/о н/о +9.4 +8.8 96 +7 +7 1019.8 988.6
16 20.05 штиль 0 н/о н/о +8.0 +7.6 97 +7 +7 1019.8 988.6
18 20.05 Ю 1 н/о н/о +5.5 +5.4 99 +5 +5 1020.0 988.8
19 20.05 штиль 0 н/о н/о +5.2 +5.1 99 +4 +4 1020.1 988.9
21 20.05 штиль 0 н/о н/о +3.9 +3.8 99 +3 +3 1020.7 989.5
22 20.05 ЮЗ 3 н/о н/о +3.0 +2.9 99 -1 -1 1021.3 990.1
00 21.05 штиль 0 н/о н/о +6.5 +6.4 99 +5 +5 1022.9 991.6
01 21.05 штиль 0 н/о н/о +11.4 +9.3 87 +11 +11 1023.2 991.9 +2.8

 

Местоположение метеостанции Норсман (Западная Австралия, Австралия): широта -32.22 долгота 121.75 высота над уровнем моря 263 м.

В архиве по умолчанию представлена погода в Норсмане за последнюю неделю. Архивные данные за месяц целиком и за предыдущие месяцы, начиная с января 2011 года, Вы можете получить, выбрав интересующий диапазон дат из раскрывающегося списка и нажав кнопку "Ввод!".


*Определитесь, кто Вы:
робот инопланетянин человек

Внимание! Время в таблицах - всемирное. Для получения местного времени необходимо прибавить поправку, которая равна 8 ч.

Смотрите также архив погоды в соседних городах и на ближайших метеорологических станциях:

Погода в Салмон Гамс (Западная Австралия, Австралия) (85 км)
Погода в Эсперансе (Западная Австралия, Австралия) (163 км)
Погода в Калгурли-Боулдере (Западная Австралия, Австралия) (163 км)
Погода в Мунглинап Запад (Западная Австралия, Австралия) (177 км)
Погода в Эсперансе (Западная Австралия, Австралия) (179 км)
Погода в Хоптауне (Западная Австралия, Австралия) (243 км)
Погода в Саутерн Кросс (Западная Австралия, Австралия) (252 км)
Погода в Ньюдегейте (Западная Австралия, Австралия) (291 км)
Погода в Джакапе (Западная Австралия, Австралия) (308 км)
Погода на Озере Грейс (Западная Австралия, Австралия) (323 км)

Пояснения к столбцам:

Ветер - указаны скорость ветра в м/с - средняя за 10 мин, порывы в срок и между сроками (в фигурных скобках) и направление, откуда дует ветер: С - северный, СВ - северо-восточный, В - восточный, ЮВ - юго-восточный, Ю - южный, ЮЗ - юго-западный, З - западный, СЗ - северо-западный.
Видимость - горизонтальная дальность видимости в метрах или километрах. При видимости от 1 до 10 км при отсутствии осадков обычно наблюдается дымка, при ухудшении видимости до 1 км и менее - туман. В сухую погоду видимость может ухудшаться дымом, пылью или мглою.
Явления - указаны атмосферные явления, наблюдавшиеся в срок или в последний час перед сроком; фигурными скобками обозначены явления, наблюдавшиеся между сроками (за 1-3 часа до срока); квадратными скобками обозначены град или гололедные отложения с указанием их диаметра в мм.
Облачность - указаны через наклонную черту общая и нижняя облачность в баллах и высота нижней границы облаков в метрах; квадратными скобками обозначены формы облаков: Ci - перистые, Cs - перисто-слоистые, Cc - перисто-кучевые, Ac - высококучевые, As - высокослоистые, Sc - слоисто-кучевые, Ns - слоисто-дождевые, Cu - кучевые, Cb - кучево-дождевые. Подробнее классификацию облаков см. в Атласе облаков (PDF).
T - Температура воздуха - температура, измеренная на высоте 2 м над землей.
Td - Температура точки росы - температура, при понижении до которой содержащийся в воздухе водяной пар достигнет насыщения.
f - Относительная влажность воздуха - влажноcть воздуха, измеренная на высоте 2 м над землей.
Te - Эффективная температура - температура, которую ощущает одетый по сезону человек в тени. Характеристика душности погоды. При расчете учитывается влияние влажности воздуха и скорости ветра на теплоощущения человека.
Tes - Эффективная температура на солнце - температура, которую ощущает человек, с поправкой на солнечный нагрев. Характеристика знойности погоды. Зависит от высоты солнца над горизонтом, облачности и скорости ветра. Ночью, в пасмурную погоду, а также при ветре 12 м/с и более поправка равна нулю.
P - Атмосферное давление - приведенное к уровню моря атмосферное давление.
Po - Атмосферное давление - измеренное на уровне метеостанции атмосферное давление.
Tmin - Минимальная температура - минимум температуры воздуха на высоте 2 м над землей.
Tmax - Максимальная температура - максимум температуры воздуха на высоте 2 м над землей.
R - Количество осадков - Количество выпавших осадков за период времени, мм. При наведении курсора мыши на число - период времени, за который выпало указанное количество осадков.
R24 - Количество осадков - Количество выпавших осадков за 24 часа, мм.
S - Снежный покров - Высота снежного покрова, см. При наведении курсора мыши на число - состояние снежного покрова и степень покрытия местности в баллах.